sat.trackr.live / text

‹ back to catalog

STARLINK-31561

NORAD 59352 · 2024-060E

PAYLOAD ACTIVE UNKNOWN

§ Identity

Operator
Country
US
Launch date
2024-03-31
Launch site
AFETR
Launch vehicle
Mass (kg)
RCS (m²)

Purposes: comms

External: N2YO · Heavens-Above · Gunter

§ Orbital elements

Epoch: 2026-09-20T23:20:10.916448Z

Period
94.27 min
Inclination
43.0013°
Eccentricity
0.0000854
Mean motion
15.27574149 rev/d
Perigee alt
482.5 km
Apogee alt
483.7 km
Semi-major
6,861.2 km
B*
-1.4472e-5
RAAN
236.5882°
Arg perigee
281.1616°
Mean anomaly
78.9140°
Rev number
13,993

§ Raw data

STARLINK-315611 59352U 24060E   26263.97234857 -.00000660  00000+0 -14472-4 0  99952 59352  43.0013 236.5882 0000854 281.1616  78.9140 15.27574149139932

JSON: /api/v1/satellites/59352 · /tle

For live sub-satellite position, see the globe view (requires WebGL).

§ Visibility from observer

Set your observer location to see the next 7 days of passes ≥ 10°. The values pass through the URL so the page stays shareable.

No JS? Fill the form by hand. The geolocation button needs JavaScript.